When you browse on this site, cookies collect data to enhance your experience and personalize the content and advertising you see.
Visit our Privacy Policy to learn more. By continuing to use the site, you agree to this use of cookies and data.
  • In Switzerland
  • List of Countries
  • For 7 days
  • Water Temperature
  • Weather Map
  • Weather Widgets
  • user-avatar
    Login

    Hourly Weather Idzhewan

    Today, 20 October, Sunday

    Time Temperature Precipitation Wind Pressure Humidity
    00:00 +14°C° 0 mm 0 mps 696 mmHg 75%
    01:00 +14°C° 0 mm 0 mps 696 mmHg 76%
    02:00 +13°C° 0 mm 0 mps 696 mmHg 78%
    03:00 +13°C° 0 mm 0 mps 695 mmHg 80%
    04:00 +13°C° 0 mm 0 mps 696 mmHg 81%
    05:00 +12°C° 0 mm 0 mps 696 mmHg 82%
    06:00 +12°C° 0 mm 0 mps 696 mmHg 84%
    07:00 +15°C° 0 mm 1 mps 696 mmHg 78%
    08:00 +16°C° 0 mm 1 mps 697 mmHg 73%
    09:00 +19°C° 0 mm 1 mps 697 mmHg 68%
    10:00 +19°C° 0 mm 2 mps 697 mmHg 66%
    11:00 +20°C° 0 mm 2 mps 697 mmHg 64%
    12:00 +21°C° 0 mm 3 mps 697 mmHg 62%
    13:00 +20°C° 0.5 mm 3 mps 696 mmHg 65%
    14:00 +20°C° 0.5 mm 3 mps 696 mmHg 67%
    15:00 +20°C° 0.5 mm 3 mps 695 mmHg 69%
    16:00 +19°C° 0.3 mm 2 mps 696 mmHg 76%
    17:00 +18°C° 0.3 mm 1 mps 696 mmHg 83%
    18:00 +16°C° 0.3 mm 1 mps 696 mmHg 90%
    19:00 +16°C° 0 mm 1 mps 696 mmHg 89%
    20:00 +15°C° 0 mm 1 mps 696 mmHg 89%
    21:00 +15°C° 0 mm 1 mps 696 mmHg 89%
    22:00 +15°C° 0 mm 1 mps 697 mmHg 89%
    23:00 +15°C° 0 mm 1 mps 697 mmHg 88%

    Tomorrow, 21 October, Monday

    Time Temperature Precipitation Wind Pressure Humidity
    00:00 +14°C° 0 mm 1 mps 697 mmHg 88%
    01:00 +14°C° 0 mm 1 mps 697 mmHg 89%
    02:00 +14°C° 0 mm 1 mps 697 mmHg 90%
    03:00 +14°C° 0 mm 1 mps 697 mmHg 90%
    04:00 +14°C° 0 mm 1 mps 697 mmHg 91%
    05:00 +14°C° 0 mm 1 mps 697 mmHg 92%
    06:00 +14°C° 0 mm 1 mps 697 mmHg 93%
    07:00 +15°C° 0 mm 1 mps 697 mmHg 91%
    08:00 +15°C° 0 mm 1 mps 697 mmHg 88%
    09:00 +16°C° 0 mm 1 mps 697 mmHg 85%
    10:00 +16°C° 0 mm 2 mps 697 mmHg 80%
    11:00 +17°C° 0 mm 2 mps 697 mmHg 76%
    12:00 +18°C° 0 mm 2 mps 697 mmHg 71%
    13:00 +18°C° 0 mm 2 mps 697 mmHg 71%
    14:00 +18°C° 0 mm 2 mps 696 mmHg 71%
    15:00 +18°C° 0 mm 2 mps 696 mmHg 71%
    16:00 +18°C° 0 mm 1 mps 696 mmHg 74%
    17:00 +16°C° 0 mm 1 mps 696 mmHg 78%
    18:00 +15°C° 0 mm 1 mps 696 mmHg 81%
    19:00 +15°C° 0 mm 1 mps 696 mmHg 82%
    20:00 +15°C° 0 mm 1 mps 696 mmHg 83%
    21:00 +14°C° 0 mm 0 mps 697 mmHg 84%
    22:00 +13°C° 0 mm 0 mps 697 mmHg 85%
    23:00 +13°C° 0 mm 0 mps 696 mmHg 86%

    Day after tomorrow, 22 October, Tuesday

    Time Temperature Precipitation Wind Pressure Humidity
    00:00 +13°C° 0 mm 0 mps 696 mmHg 87%
    01:00 +12°C° 0 mm 0 mps 696 mmHg 87%
    02:00 +13°C° 0 mm 1 mps 696 mmHg 87%
    03:00 +12°C° 0 mm 1 mps 696 mmHg 86%
    04:00 +12°C° 0 mm 1 mps 696 mmHg 85%
    05:00 +11°C° 0 mm 1 mps 696 mmHg 84%
    06:00 +10°C° 0 mm 0 mps 696 mmHg 83%
    07:00 +13°C° 0 mm 1 mps 696 mmHg 75%
    08:00 +14°C° 0 mm 1 mps 696 mmHg 67%
    09:00 +16°C° 0 mm 1 mps 697 mmHg 59%
    10:00 +18°C° 0 mm 1 mps 696 mmHg 57%
    11:00 +18°C° 0 mm 2 mps 696 mmHg 54%
    12:00 +19°C° 0 mm 2 mps 696 mmHg 51%
    13:00 +19°C° 0 mm 2 mps 696 mmHg 52%
    14:00 +19°C° 0 mm 2 mps 696 mmHg 53%
    15:00 +19°C° 0 mm 2 mps 695 mmHg 53%
    16:00 +17°C° 0 mm 2 mps 695 mmHg 60%
    17:00 +15°C° 0 mm 1 mps 695 mmHg 67%
    18:00 +13°C° 0 mm 0 mps 695 mmHg 74%
    19:00 +12°C° 0 mm 0 mps 695 mmHg 76%
    20:00 +12°C° 0 mm 0 mps 695 mmHg 77%
    21:00 +12°C° 0 mm 0 mps 696 mmHg 78%
    22:00 +12°C° 0 mm 1 mps 696 mmHg 79%
    23:00 +12°C° 0 mm 1 mps 696 mmHg 80%

    23 October, Wednesday

    Time Temperature Precipitation Wind Pressure Humidity
    00:00 +12°C° 0 mm 1 mps 696 mmHg 81%
    01:00 +12°C° 0 mm 1 mps 696 mmHg 82%
    02:00 +11°C° 0 mm 1 mps 696 mmHg 82%
    03:00 +11°C° 0 mm 1 mps 695 mmHg 83%
    04:00 +11°C° 0 mm 1 mps 695 mmHg 83%
    05:00 +11°C° 0 mm 1 mps 695 mmHg 83%
    06:00 +11°C° 0 mm 1 mps 695 mmHg 83%
    07:00 +13°C° 0 mm 1 mps 696 mmHg 76%
    08:00 +14°C° 0 mm 1 mps 696 mmHg 68%
    09:00 +16°C° 0 mm 1 mps 697 mmHg 60%
    10:00 +18°C° 0 mm 1 mps 696 mmHg 57%
    11:00 +18°C° 0 mm 2 mps 696 mmHg 54%
    12:00 +20°C° 0 mm 2 mps 696 mmHg 50%
    13:00 +19°C° 0 mm 2 mps 696 mmHg 51%
    14:00 +19°C° 0 mm 2 mps 696 mmHg 51%
    15:00 +19°C° 0 mm 2 mps 695 mmHg 52%
    16:00 +18°C° 0 mm 2 mps 695 mmHg 61%
    17:00 +16°C° 0 mm 1 mps 695 mmHg 69%
    18:00 +13°C° 0 mm 0 mps 695 mmHg 78%
    19:00 +12°C° 0 mm 0 mps 695 mmHg 79%
    20:00 +12°C° 0 mm 0 mps 696 mmHg 80%
    21:00 +12°C° 0 mm 0 mps 696 mmHg 81%
    22:00 +11°C° 0 mm 0 mps 696 mmHg 82%
    23:00 +12°C° 0 mm 1 mps 696 mmHg 83%

    24 October, Thursday

    Time Temperature Precipitation Wind Pressure Humidity
    00:00 +12°C° 0 mm 1 mps 696 mmHg 84%
    01:00 +11°C° 0 mm 1 mps 696 mmHg 85%
    02:00 +11°C° 0 mm 1 mps 696 mmHg 86%
    03:00 +11°C° 0 mm 1 mps 696 mmHg 87%
    04:00 +10°C° 0 mm 1 mps 696 mmHg 86%
    05:00 +10°C° 0 mm 1 mps 695 mmHg 85%
    06:00 +10°C° 0 mm 1 mps 695 mmHg 85%
    07:00 +12°C° 0 mm 1 mps 696 mmHg 76%
    08:00 +14°C° 0 mm 1 mps 696 mmHg 68%
    09:00 +16°C° 0 mm 1 mps 696 mmHg 60%
    10:00 +18°C° 0 mm 1 mps 696 mmHg 57%
    11:00 +18°C° 0 mm 2 mps 696 mmHg 55%
    12:00 +19°C° 0 mm 2 mps 696 mmHg 53%
    13:00 +19°C° 0 mm 2 mps 695 mmHg 55%
    14:00 +19°C° 0 mm 2 mps 695 mmHg 57%
    15:00 +19°C° 0 mm 2 mps 695 mmHg 59%
    16:00 +18°C° 0 mm 1 mps 695 mmHg 68%
    17:00 +15°C° 0 mm 1 mps 695 mmHg 76%
    18:00 +12°C° 0 mm 0 mps 695 mmHg 85%
    19:00 +12°C° 0 mm 0 mps 695 mmHg 85%
    20:00 +12°C° 0 mm 0 mps 695 mmHg 86%
    21:00 +12°C° 0 mm 0 mps 695 mmHg 86%
    22:00 +11°C° 0 mm 0 mps 695 mmHg 87%
    23:00 +11°C° 0 mm 0 mps 695 mmHg 87%

    25 October, Friday

    Time Temperature Precipitation Wind Pressure Humidity
    00:00 +11°C° 0 mm 0 mps 695 mmHg 88%
    01:00 +10°C° 0 mm 0 mps 695 mmHg 88%
    02:00 +10°C° 0 mm 0 mps 695 mmHg 88%
    03:00 +10°C° 0 mm 0 mps 695 mmHg 88%
    04:00 +10°C° 0 mm 0 mps 695 mmHg 87%
    05:00 +11°C° 0 mm 1 mps 695 mmHg 86%
    06:00 +11°C° 0 mm 1 mps 695 mmHg 86%
    07:00 +13°C° 0 mm 1 mps 695 mmHg 78%
    08:00 +15°C° 0 mm 1 mps 695 mmHg 70%
    09:00 +18°C° 0 mm 1 mps 696 mmHg 62%
    10:00 +19°C° 0 mm 1 mps 696 mmHg 58%
    11:00 +19°C° 0 mm 2 mps 696 mmHg 55%
    12:00 +20°C° 0 mm 2 mps 695 mmHg 51%
    13:00 +20°C° 0 mm 2 mps 695 mmHg 53%
    14:00 +20°C° 0 mm 2 mps 695 mmHg 54%
    15:00 +20°C° 0 mm 2 mps 694 mmHg 56%
    16:00 +18°C° 0 mm 2 mps 694 mmHg 65%
    17:00 +16°C° 0 mm 1 mps 694 mmHg 74%
    18:00 +13°C° 0 mm 0 mps 694 mmHg 83%
    19:00 +13°C° 0 mm 0 mps 694 mmHg 83%
    20:00 +13°C° 0 mm 0 mps 694 mmHg 84%
    21:00 +12°C° 0 mm 0 mps 694 mmHg 85%
    22:00 +12°C° 0 mm 0 mps 694 mmHg 86%
    23:00 +11°C° 0 mm 0 mps 694 mmHg 87%
    Show more